Regional Weather Roundup
Issued by NWS

Home | Current Version | Previous Version | Graphics & Text | Print | Product List | Glossary On
Versions: 1 2 3 4 5 6 7 8 9 10 11 12 13 14 15 16 17 18 19 20 21 22 23 24 25 26 27 28 29 30 31 32 33 34 35 36 37 38 39 40 41 42 43 44 45 46 47 48 49 50
000
ASUS44 KMEG 201110
RWRTN
TENNESSEE HOURLY STATE WEATHER ROUNDUP
NATIONAL WEATHER SERVICE MEMPHIS TN
500 AM CST TUE FEB 20 2018

TNZ002-004-019-021-049-052-054-088>092-201200-
WEST TENNESSEE

CITY           SKY/WX    TMP DP  RH WIND       PRES   REMARKS
MEMPHIS INTL   FAIR      66  61  84 S16G22    30.08S
JACKSON        FAIR      67  58  72 S15G23    30.11S
DYERSBURG      MOCLDY    67  60  78 S9        30.08R
SOMERVILLE     CLOUDY    68  57  68 S16G29    30.10R
COVINGTON      PTCLDY    66  61  82 S9G18     30.08S
UNION CITY     MOCLDY    66  61  82 S13       30.07R
BOLIVAR        MOCLDY    66  59  77 SE12G21   30.12R
PARIS          PTCLDY    66  57  72 S14       30.10R
HUNTINGDON     PTCLDY    66  59  77 S17       30.11R
LEXINGTON      MOCLDY    66  59  77 S14G22    30.14F
SELMER         PTCLDY    64  61  88 S12G18    30.15R
SAVANNAH       CLOUDY    64  59  82 S8        30.16S
$$

TNZ008-025-027-028-033-062-065-066-201200-
NORTH MIDDLE TENNESSEE

CITY           SKY/WX    TMP DP  RH WIND       PRES   REMARKS
NASHVILLE      FAIR      66  56  70 S12       30.19R
PORTLAND       MOCLDY    64  57  77 S13       30.18R
CLARKSVILLE    FAIR      67  55  65 S16G29    30.13R
SMYRNA         FAIR      65  58  78 S7        30.21R
COOKEVILLE     PTCLDY    63  57  82 S9        30.24S
GALLATIN       MOCLDY    66  57  72 S8G14     30.22R
CROSSVILLE     FAIR      59  54  83 VRB7G20   30.31R
$$

TNZ061-075-076-078-094-096-097-201200-
SOUTH MIDDLE TENNESSEE

CITY           SKY/WX    TMP DP  RH WIND       PRES   REMARKS
FAYETTEVILLE   MOCLDY    63  59  88 S12       30.23S
TULLAHOMA      CLEAR     59  57  94 SE6       30.24R
WINCHESTER     CLEAR     63  57  82 S17       30.26S
MCMINNVILLE    MOCLDY    64  57  77 VRB5      30.24S
COLUMBIA       MOCLDY    64  61  88 S8        30.18R
SHELBYVILLE    CLOUDY    63  57  82 SE7       30.22S
$$

TNZ017-018-042-046-047-201200-
NORTHEAST TENNESSEE

CITY           SKY/WX    TMP DP  RH WIND       PRES   REMARKS
TRI CITIES     FAIR      50  50 100 CALM      30.33R
ELIZABETHTON   FAIR      52  50  93 NE5       30.35R
$$

TNZ012-013-036-069-073-074-201200-
CENTRAL EAST TENNESSEE

CITY           SKY/WX    TMP DP  RH WIND       PRES   REMARKS
KNOXVILLE      FAIR      55  54  96 N3        30.30R
OAK RIDGE      FAIR      56  56 100 VRB3      30.32R
DOWNTOWN KNOXV MOCLDY    48  48 100 CALM      30.32R FOG
GATLINBURG     CLEAR     48  46  93 CALM      30.31R
MORRISTOWN     PTCLDY    52  50  93 CALM      30.31R
JACKSBORO      CLEAR     66  55  68 SW16G23   30.31R
$$

TNZ083-085-099-201200-
SOUTHEAST TENNESSEE

CITY           SKY/WX    TMP DP  RH WIND       PRES   REMARKS
CHATTANOOGA    FAIR      58  56  93 S5        30.32R
$$

SKY/WX REPORTED AS FAIR MEANS FEW OR NO CLOUDS BELOW
12 THOUSAND FEET.





USA.gov is the U.S. government's official web portal to all federal, state and local government web resources and services.